Location: Binningen
(47.7924°N, 8.7261°E)
Time: 06:50:34
(UTC+00:00)

Cosmos 1733 Rocket - Pass Details

Date: 05 October 2021
Orbit: 604 x 627 km, 82.5° (Epoch: 25 October)

Event Time Altitude Azimuth Distance (km) Brightness Sun altitude
Rises 02:35:26 0° 358° (N) 2,902 6.8 -29.2°
Reaches altitude 10° 02:37:51 10° 8° (N) 1,996 6.0 -28.8°
Maximum altitude 02:41:52 34° 73° (ENE) 1,038 4.7 -28.2°
Drops below altitude 10° 02:45:54 10° 139° (SE) 1,993 5.8 -27.6°
Sets 02:48:18 0° 148° (SSE) 2,897 6.6 -27.3°
